Regional Weather Roundup
Issued by NWS Little Rock, AR

Home | Current Version | Previous Version | Graphics & Text | Print | Product List | Glossary On
Versions: 1 2 3 4 5 6 7 8 9 10 11 12 13 14 15 16 17 18 19 20 21 22 23 24 25 26 27 28 29 30 31 32 33 34 35 36 37 38 39 40 41 42 43 44 45 46 47 48 49 50
000
ASUS44 KLZK 210705
RWRLZK

WEATHER ROUNDUP FOR ARKANSAS
NATIONAL WEATHER SERVICE LITTLE ROCK AR
200 AM CDT THU AUG 21 2014

NOTE: "FAIR" INDICATES FEW OR NO CLOUDS BELOW 12,000 FEET WITH NO
SIGNIFICANT WEATHER AND/OR OBSTRUCTIONS TO VISIBILITY.

ARZ001-003-010-029-210800-
NORTHWEST ARKANSAS

CITY           SKY/WX    TMP DP  RH WIND       PRES   REMARKS
FAYETTEVILLE   CLEAR     76  70  82 S9        30.02S
FORT SMITH     CLEAR     77  71  82 NE5       29.98S
HARRISON       CLEAR     74  70  87 S6        30.03S
BENTONVILLE    CLEAR     77  70  78 S7        30.02S
ROGERS         CLEAR     76  68  76 SE9       30.03S
SILOAM SPGS    CLEAR     75  64  69 S9        30.02S
HIGHFILL       CLEAR     75  68  78 S9        30.01S
$$

ARZ004-005-016-210800-
NORTH CENTRAL ARKANSAS

CITY           SKY/WX    TMP DP  RH WIND       PRES   REMARKS
BATESVILLE     CLEAR     79  72  78 SW8       30.01S
FLIPPIN        CLEAR     77  66  69 CALM      30.01S
MTN HOME       CLEAR     75  68  78 S3        30.01S
$$

ARZ040-041-210800-
WEST CENTRAL ARKANSAS

CITY           SKY/WX    TMP DP  RH WIND       PRES   REMARKS
MENA           CLEAR     81  72  74 S7        30.04S
MOUNT IDA      CLEAR     80  69  69 MISG      30.02R
$$

ARZ009-017-025-026-028-210800-
NORTHEAST ARKANSAS

CITY           SKY/WX    TMP DP  RH WIND       PRES   REMARKS
CORNING        FAIR      77  73  88 SW5       30.01S
JONESBORO      PTCLDY    77  72  84 S5        30.01F
NEWPORT        CLEAR     77  75  93 S7        30.02S
WALNUT RIDGE   PTCLDY    75  72  88 S7        30.00S
BLYTHEVILLE    PTCLDY    76  74  93 S7        30.02F
$$

ARZ022-023-033-042-044-210800-
CENTRAL ARKANSAS

CITY           SKY/WX    TMP DP  RH WIND       PRES   REMARKS
LITTLE ROCK    CLEAR     78  71  79 S8        30.03R
N LITTLE ROCK    N/A     79  74  84 SW8       30.03R
JACKSONVILLE   CLEAR     77  74  90 S3        30.03S
SEARCY           N/A     74  73  96 CALM        N/A
HOT SPRINGS    CLEAR     80  70  71 S7        30.04S
RUSSELLVILLE   CLEAR     77  72  84 CALM      30.01S
CLINTON        FAIR      70  70 100 CALM      30.03S FOG
$$

ARZ036-210800-
EAST ARKANSAS

CITY           SKY/WX    TMP DP  RH WIND       PRES   REMARKS
WEST MEMPHIS     N/A     75  74  96 S7        30.02F
$$

ARZ050-053-066-070-073-210800-
SOUTHWEST ARKANSAS

CITY           SKY/WX    TMP DP  RH WIND       PRES   REMARKS
ARKADELPHIA    FAIR      76  73  90 CALM      30.04S
CAMDEN         CLEAR     73  66  78 S5        30.04S
TEXARKANA      CLEAR     76  69  79 S6        30.04R
EL DORADO      CLEAR     73  69  87 S6        30.05F
DE QUEEN       CLEAR     77  70  79 CALM      30.00S
$$

ARZ056-057-069-210800-
SOUTHEAST ARKANSAS

CITY           SKY/WX    TMP DP  RH WIND       PRES   REMARKS
PINE BLUFF     CLEAR     75  71  87 SW5       30.04R
STUTTGART      CLEAR     79  72  78 S7        30.04S
MONTICELLO     CLEAR     78  72  81 SW9       30.04F

$$





USA.gov is the U.S. government's official web portal to all federal, state and local government web resources and services.